Location: Vancouver
(49.2500°N, 123.1330°W)
Time: 15:24:20
(UTC-07:00)

A-11 Canister half - Visible Passes

Search period start: 23 May 2017 00:00
Search period end: 02 June 2017 00:00
Orbit: 1525 x 1684 km, 47.3° (Epoch: 22 May)

Date Brightness Start Highest point End Pass type
(mag) Time Alt. Az. Time Alt. Az. Time Alt. Az.
23 May 9.0 00:06:26 10° W 00:16:00 73° SSW 00:25:53 10° ESE visible
23 May 9.4 02:11:28 10° WNW 02:20:15 40° SW 02:29:15 10° SSE visible
23 May 10.4 04:19:58 10° WSW 04:23:09 12° WSW 04:26:22 10° SW visible
23 May 9.1 21:40:03 10° WSW 21:49:29 78° S 21:59:15 10° E visible
23 May 9.0 23:44:52 10° W 23:54:24 74° SSW 00:04:16 10° ESE visible
24 May 9.4 01:49:51 10° WNW 01:58:41 41° SW 02:06:18 15° SSE visible
24 May 10.3 03:57:50 10° W 04:01:40 13° WSW 04:04:16 12° SW visible
24 May 9.0 23:23:17 10° W 23:32:48 75° SSW 23:42:40 10° ESE visible
25 May 9.4 01:28:15 10° WNW 01:37:08 43° SW 01:43:11 21° SSE visible
25 May 10.3 03:35:48 10° W 03:40:11 14° SW 03:41:19 14° SW visible
25 May 9.0 23:01:42 10° W 23:11:13 75° SSW 23:21:03 10° ESE visible
26 May 9.3 01:06:39 10° WNW 01:15:34 44° SW 01:21:08 24° SSE visible
26 May 10.3 03:13:52 10° W 03:18:41 15° SW 03:19:19 15° SW visible
26 May 9.0 22:40:08 10° W 22:49:37 76° S 22:59:26 10° ESE visible
27 May 9.3 00:45:04 10° WNW 00:54:01 46° SW 00:59:30 25° SSE visible
27 May 10.3 02:51:59 10° W 02:57:11 16° SW 02:57:42 16° SW visible
27 May 9.0 22:18:33 10° W 22:28:01 77° S 22:37:49 10° ESE visible
28 May 9.3 00:23:28 10° WNW 00:32:28 47° SSW 00:38:07 24° SSE visible
28 May 10.2 02:30:09 10° W 02:35:41 17° SW 02:36:20 17° SW visible
28 May 9.1 21:56:59 10° W 22:06:26 78° S 22:16:12 10° ESE visible
29 May 9.3 00:01:52 10° WNW 00:10:54 49° SSW 00:16:53 23° SSE visible
29 May 10.2 02:08:20 10° W 02:14:11 18° SW 02:15:07 18° SW visible
29 May 9.1 21:35:24 10° W 21:44:51 78° S 21:54:36 10° ESE visible
29 May 9.3 23:40:17 10° WNW 23:49:21 50° SSW 23:55:46 22° SSE visible
30 May 10.2 01:46:34 10° W 01:52:41 19° SW 01:54:01 18° SW visible
30 May 9.3 23:18:41 10° WNW 23:27:47 52° SSW 23:34:45 19° SE visible
31 May 10.2 01:24:49 10° W 01:31:11 20° SW 01:33:01 19° SW visible
31 May 9.3 22:57:07 10° WNW 23:06:13 53° SSW 23:13:49 17° SE visible
01 Jun 10.1 01:03:05 10° W 01:09:40 21° SW 01:12:04 19° SSW visible
01 Jun 9.3 22:35:32 10° WNW 22:44:39 55° SSW 22:52:56 14° SE visible
